Time,TemperatureF,DewpointF,PressureIn,WindDirection,WindDirectionDegrees,WindSpeedMPH,WindSpeedGustMPH,Humidity,HourlyPrecipIn,Conditions,Clouds,dailyrainin,SolarRadiationWatts/m^2,SoftwareType,DateUTC
2013-06-27 00:01:00,69.3,67.2,29.78,WNW,290,0.0,0.0,93,0.00,RA,,0.00,0.0,WeatherDisplay:10.37,2013-06-27 04:01:00,
2013-06-27 00:02:00,69.3,67.2,29.78,WNW,290,0.0,0.0,93,0.00,RA,,0.00,0.0,WeatherDisplay:10.37,2013-06-27 04:02:00,
2013-06-27 00:05:00,69.4,67.6,29.78,WNW,290,0.0,0.0,94,0.00,RA,,0.00,0.0,WeatherDisplay:10.37,2013-06-27 04:05:00,
2013-06-27 00:10:00,69.3,67.5,29.78,WNW,290,0.0,0.0,94,0.00,SCT,,0.00,0.0,WeatherDisplay:10.37,2013-06-27 04:10:00,
2013-06-27 00:15:00,69.3,67.5,29.78,WNW,290,0.0,0.0,94,0.00,SCT,,0.00,0.0,WeatherDisplay:10.37,2013-06-27 04:15:00,
2013-06-27 00:20:00,69.3,67.5,29.78,WNW,290,0.0,0.0,94,0.00,SCT,,0.00,0.0,WeatherDisplay:10.37,2013-06-27 04:20:00,
2013-06-27 00:25:00,69.1,67.3,29.78,WNW,290,0.0,0.0,94,0.00,SCT,,0.00,0.0,WeatherDisplay:10.37,2013-06-27 04:25:00,
2013-06-27 00:30:00,69.1,67.3,29.78,WNW,290,0.0,0.0,94,0.00,SCT,,0.00,0.0,WeatherDisplay:10.37,2013-06-27 04:30:00,
2013-06-27 00:35:00,68.9,67.4,29.78,WNW,290,0.0,0.0,95,0.00,SCT,,0.00,0.0,WeatherDisplay:10.37,2013-06-27 04:35:00,
2013-06-27 00:40:00,68.9,67.4,29.78,WNW,290,0.0,0.0,95,0.00,SCT,,0.00,0.0,WeatherDisplay:10.37,2013-06-27 04:40:00,
2013-06-27 00:45:00,68.8,67.3,29.78,WNW,290,0.0,0.0,95,0.00,SCT,,0.00,0.0,WeatherDisplay:10.37,2013-06-27 04:45:00,
2013-06-27 00:50:00,68.8,67.3,29.78,WNW,290,0.0,0.0,95,0.00,SCT,,0.00,0.0,WeatherDisplay:10.37,2013-06-27 04:50:00,
2013-06-27 00:55:00,68.8,67.3,29.78,WNW,290,0.0,0.0,95,0.00,SCT,,0.00,0.0,WeatherDisplay:10.37,2013-06-27 04:55:00,
2013-06-27 01:00:00,68.8,67.3,29.78,WNW,290,0.0,0.0,95,0.00,SCT,,0.00,0.0,WeatherDisplay:10.37,2013-06-27 05:00:00,
2013-06-27 01:05:00,68.6,67.1,29.78,WNW,290,0.0,0.0,95,0.00,SCT,,0.00,0.0,WeatherDisplay:10.37,2013-06-27 05:05:00,
2013-06-27 01:10:00,68.6,67.4,29.78,WNW,290,0.0,0.0,96,0.00,SCT,,0.00,0.0,WeatherDisplay:10.37,2013-06-27 05:10:00,
2013-06-27 01:15:00,68.4,67.2,29.77,WNW,290,0.0,0.0,96,0.00,BKN,,0.00,0.0,WeatherDisplay:10.37,2013-06-27 05:15:00,
2013-06-27 01:20:00,68.6,67.4,29.78,WNW,290,0.0,0.0,96,0.00,BKN,,0.00,0.0,WeatherDisplay:10.37,2013-06-27 05:20:00,
2013-06-27 01:25:00,68.4,67.2,29.78,WNW,290,0.0,0.0,96,0.00,BKN,,0.00,0.0,WeatherDisplay:10.37,2013-06-27 05:25:00,
2013-06-27 01:30:00,68.4,67.2,29.77,WNW,290,0.0,0.0,96,0.00,BKN,,0.00,0.0,WeatherDisplay:10.37,2013-06-27 05:30:00,
2013-06-27 01:35:00,68.4,67.2,29.77,WNW,290,0.0,0.0,96,0.00,BKN,,0.00,0.0,WeatherDisplay:10.37,2013-06-27 05:35:00,
2013-06-27 01:40:00,68.6,67.4,29.77,WNW,290,0.0,0.0,96,0.00,BKN,,0.00,0.0,WeatherDisplay:10.37,2013-06-27 05:40:00,
2013-06-27 01:45:00,68.4,67.2,29.77,WNW,290,0.0,0.0,96,0.00,BKN,,0.00,0.0,WeatherDisplay:10.37,2013-06-27 05:45:00,
2013-06-27 01:50:00,68.4,67.2,29.77,WNW,290,0.0,0.0,96,0.00,BKN,,0.00,0.0,WeatherDisplay:10.37,2013-06-27 05:50:00,
2013-06-27 01:55:00,68.4,67.2,29.77,WNW,290,0.0,0.0,96,0.00,BKN,,0.00,0.0,WeatherDisplay:10.37,2013-06-27 05:55:00,
2013-06-27 02:00:00,68.3,67.1,29.77,WNW,290,0.0,0.0,96,0.00,BKN,,0.00,0.0,WeatherDisplay:10.37,2013-06-27 06:00:00,
2013-06-27 02:05:00,68.1,66.9,29.77,WNW,290,0.0,0.0,96,0.00,BKN,,0.00,0.0,WeatherDisplay:10.37,2013-06-27 06:05:00,
2013-06-27 02:10:00,68.1,67.2,29.77,WNW,290,0.0,0.0,97,0.00,BKN,,0.00,0.0,WeatherDisplay:10.37,2013-06-27 06:10:00,
2013-06-27 02:15:00,68.1,67.2,29.77,WNW,290,0.0,0.0,97,0.00,BKN,,0.00,0.0,WeatherDisplay:10.37,2013-06-27 06:15:00,
2013-06-27 02:20:00,68.1,67.2,29.76,North,1,0.0,0.0,97,0.00,BKN,,0.00,0.0,WeatherDisplay:10.37,2013-06-27 06:20:00,
2013-06-27 02:25:00,68.1,67.2,29.76,North,0,0.0,0.0,97,0.00,BKN,,0.00,0.0,WeatherDisplay:10.37,2013-06-27 06:25:00,
2013-06-27 02:30:00,68.1,67.2,29.76,North,0,0.0,0.0,97,0.00,BKN,,0.00,0.0,WeatherDisplay:10.37,2013-06-27 06:30:00,
2013-06-27 02:35:00,68.1,67.2,29.77,North,0,0.0,0.0,97,0.00,BKN,,0.00,0.0,WeatherDisplay:10.37,2013-06-27 06:35:00,
2013-06-27 02:40:00,68.1,67.2,29.77,North,0,0.0,0.0,97,0.00,BKN,,0.00,0.0,WeatherDisplay:10.37,2013-06-27 06:40:00,
2013-06-27 02:45:00,68.1,67.2,29.76,North,0,0.0,0.0,97,0.00,BKN,,0.00,0.0,WeatherDisplay:10.37,2013-06-27 06:45:00,
2013-06-27 02:50:00,68.1,67.2,29.76,North,0,0.0,0.0,97,0.00,BKN,,0.00,0.0,WeatherDisplay:10.37,2013-06-27 06:50:00,
2013-06-27 02:55:00,68.1,67.2,29.76,North,0,0.0,0.0,97,0.00,BKN,,0.00,0.0,WeatherDisplay:10.37,2013-06-27 06:55:00,
2013-06-27 03:00:00,68.1,67.2,29.76,North,0,0.0,0.0,97,0.00,BKN,,0.00,0.0,WeatherDisplay:10.37,2013-06-27 07:00:00,
2013-06-27 03:05:00,68.1,67.2,29.75,North,0,0.0,0.0,97,0.00,BKN,,0.00,0.0,WeatherDisplay:10.37,2013-06-27 07:05:00,
2013-06-27 03:10:00,68.1,67.2,29.75,North,0,0.0,0.0,97,0.00,BKN,,0.00,0.0,WeatherDisplay:10.37,2013-06-27 07:10:00,
2013-06-27 03:15:00,68.1,67.2,29.75,North,0,0.0,0.0,97,0.00,BKN,,0.00,0.0,WeatherDisplay:10.37,2013-06-27 07:15:00,
2013-06-27 03:20:00,68.1,67.2,29.74,North,0,0.0,0.0,97,0.00,BKN,,0.00,0.0,WeatherDisplay:10.37,2013-06-27 07:20:00,
2013-06-27 03:25:00,68.1,67.2,29.74,North,0,0.0,0.0,97,0.00,BKN,,0.00,0.0,WeatherDisplay:10.37,2013-06-27 07:25:00,
2013-06-27 03:30:00,68.1,67.2,29.74,North,0,0.0,0.0,97,0.00,BKN,,0.00,0.0,WeatherDisplay:10.37,2013-06-27 07:30:00,
2013-06-27 03:35:00,68.1,67.2,29.74,North,0,0.0,0.0,97,0.00,BKN,,0.00,0.0,WeatherDisplay:10.37,2013-06-27 07:35:00,
2013-06-27 03:40:00,68.1,67.2,29.73,North,0,0.0,0.0,97,0.00,BKN,,0.00,0.0,WeatherDisplay:10.37,2013-06-27 07:40:00,
2013-06-27 03:45:00,68.1,67.2,29.73,North,0,0.0,0.0,97,0.00,BKN,,0.00,0.0,WeatherDisplay:10.37,2013-06-27 07:45:00,
2013-06-27 03:50:00,68.1,67.2,29.72,North,0,0.0,0.0,97,0.00,BKN,,0.00,0.0,WeatherDisplay:10.37,2013-06-27 07:50:00,
2013-06-27 03:55:00,68.1,67.2,29.72,North,0,0.0,0.0,97,0.00,BKN,,0.00,0.0,WeatherDisplay:10.37,2013-06-27 07:55:00,
2013-06-27 04:00:00,68.1,67.2,29.73,North,0,0.0,0.0,97,0.00,BKN,,0.00,0.0,WeatherDisplay:10.37,2013-06-27 08:00:00,
2013-06-27 04:05:00,68.1,67.2,29.73,North,0,0.0,0.0,97,0.00,BKN,,0.00,0.0,WeatherDisplay:10.37,2013-06-27 08:05:00,
2013-06-27 04:10:00,68.1,67.2,29.73,North,0,0.0,0.0,97,0.00,BKN,,0.00,0.0,WeatherDisplay:10.37,2013-06-27 08:10:00,
2013-06-27 04:15:00,68.1,67.2,29.73,North,0,0.0,0.0,97,0.00,SCT,,0.00,0.0,WeatherDisplay:10.37,2013-06-27 08:15:00,
2013-06-27 04:20:00,68.1,67.2,29.73,North,0,0.0,0.0,97,0.00,SCT,,0.00,0.0,WeatherDisplay:10.37,2013-06-27 08:20:00,
2013-06-27 04:25:00,68.1,67.2,29.73,North,0,0.0,0.0,97,0.00,SCT,,0.00,0.0,WeatherDisplay:10.37,2013-06-27 08:25:00,
2013-06-27 04:30:00,68.1,67.2,29.73,North,0,0.0,0.0,97,0.00,SCT,,0.00,0.0,WeatherDisplay:10.37,2013-06-27 08:30:00,
2013-06-27 04:35:00,68.1,67.2,29.73,North,0,0.0,0.0,97,0.00,SCT,,0.00,0.0,WeatherDisplay:10.37,2013-06-27 08:35:00,
2013-06-27 04:40:00,68.1,67.2,29.73,North,0,0.0,0.0,97,0.00,SCT,,0.00,0.0,WeatherDisplay:10.37,2013-06-27 08:40:00,
2013-06-27 04:45:00,68.1,67.2,29.73,North,0,0.0,0.0,97,0.00,SCT,,0.00,0.0,WeatherDisplay:10.37,2013-06-27 08:45:00,
2013-06-27 04:50:00,68.1,67.2,29.73,North,0,0.0,0.0,97,0.00,SCT,,0.00,0.0,WeatherDisplay:10.37,2013-06-27 08:50:00,
2013-06-27 04:55:00,68.1,67.2,29.73,North,0,0.0,0.0,97,0.00,SCT,,0.00,0.0,WeatherDisplay:10.37,2013-06-27 08:55:00,
2013-06-27 05:00:00,68.1,67.2,29.74,North,0,0.0,0.0,97,0.00,SCT,,0.00,0.0,WeatherDisplay:10.37,2013-06-27 09:00:00,
2013-06-27 05:05:00,68.1,67.2,29.74,North,0,0.0,0.0,97,0.00,SCT,,0.00,0.0,WeatherDisplay:10.37,2013-06-27 09:05:00,
2013-06-27 05:10:00,68.1,67.2,29.74,North,0,0.0,0.0,97,0.00,SCT,,0.00,0.0,WeatherDisplay:10.37,2013-06-27 09:10:00,
2013-06-27 05:15:00,68.1,67.2,29.74,North,0,0.0,0.0,97,0.00,SCT,,0.00,0.0,WeatherDisplay:10.37,2013-06-27 09:15:00,
2013-06-27 05:20:00,68.1,67.2,29.74,North,0,0.0,0.0,97,0.00,SCT,,0.00,0.0,WeatherDisplay:10.37,2013-06-27 09:20:00,
2013-06-27 05:25:00,68.1,67.2,29.74,North,0,0.0,0.0,97,0.00,SCT,,0.00,0.0,WeatherDisplay:10.37,2013-06-27 09:25:00,
2013-06-27 05:30:00,68.1,67.2,29.74,North,0,0.0,0.0,97,0.00,SCT,,0.00,0.0,WeatherDisplay:10.37,2013-06-27 09:30:00,
2013-06-27 05:35:00,68.1,67.2,29.74,North,0,0.0,0.0,97,0.00,BKN,,0.00,0.0,WeatherDisplay:10.37,2013-06-27 09:35:00,
2013-06-27 05:40:00,68.1,67.2,29.74,North,0,0.0,0.0,97,0.00,BKN,,0.00,0.0,WeatherDisplay:10.37,2013-06-27 09:40:00,
2013-06-27 05:45:00,68.1,67.2,29.74,North,0,0.0,0.0,97,0.00,BKN,,0.00,0.0,WeatherDisplay:10.37,2013-06-27 09:45:00,
2013-06-27 05:50:00,68.1,67.2,29.74,North,0,0.0,0.0,97,0.00,BKN,,0.00,0.0,WeatherDisplay:10.37,2013-06-27 09:50:00,
2013-06-27 05:55:00,68.1,67.2,29.73,North,0,0.0,0.0,97,0.00,BKN,,0.00,0.0,WeatherDisplay:10.37,2013-06-27 09:55:00,
2013-06-27 06:00:00,68.1,67.2,29.74,North,0,0.0,0.0,97,0.00,BKN,,0.00,0.0,WeatherDisplay:10.37,2013-06-27 10:00:00,
2013-06-27 06:05:00,68.1,67.2,29.74,North,0,0.0,0.0,97,0.00,OVC,,0.00,0.0,WeatherDisplay:10.37,2013-06-27 10:05:00,
2013-06-27 06:10:00,68.1,67.2,29.74,North,0,0.0,0.0,97,0.00,OVC,,0.00,0.0,WeatherDisplay:10.37,2013-06-27 10:10:00,
2013-06-27 06:15:00,68.1,67.2,29.74,North,0,0.0,0.0,97,0.00,,,0.00,0.0,WeatherDisplay:10.37,2013-06-27 10:15:00,
2013-06-27 06:20:00,68.1,67.2,29.73,North,0,0.0,0.0,97,0.00,OVC,,0.00,0.0,WeatherDisplay:10.37,2013-06-27 10:20:00,
2013-06-27 06:25:00,68.1,67.2,29.73,North,0,0.0,0.0,97,0.00,OVC,,0.00,0.0,WeatherDisplay:10.37,2013-06-27 10:25:00,
2013-06-27 06:30:00,68.1,67.2,29.74,North,0,0.0,0.0,97,0.00,OVC,,0.00,0.0,WeatherDisplay:10.37,2013-06-27 10:30:00,
2013-06-27 06:35:00,68.1,67.2,29.74,North,0,0.0,0.0,97,0.00,OVC,,0.00,0.0,WeatherDisplay:10.37,2013-06-27 10:35:00,
2013-06-27 06:40:00,68.1,67.2,29.74,North,0,0.0,0.0,97,0.00,OVC,,0.00,0.0,WeatherDisplay:10.37,2013-06-27 10:40:00,
2013-06-27 06:45:00,68.1,67.2,29.74,North,0,0.0,0.0,97,0.00,,,0.00,0.0,WeatherDisplay:10.37,2013-06-27 10:45:00,
2013-06-27 06:50:00,68.1,67.2,29.73,North,0,0.0,0.0,97,0.00,OVC,,0.00,0.0,WeatherDisplay:10.37,2013-06-27 10:50:00,
2013-06-27 06:55:00,68.1,67.2,29.73,North,0,0.0,0.0,97,0.00,OVC,,0.00,0.0,WeatherDisplay:10.37,2013-06-27 10:55:00,
2013-06-27 07:00:00,68.1,67.2,29.73,North,0,0.0,0.0,97,0.00,OVC,,0.00,0.0,WeatherDisplay:10.37,2013-06-27 11:00:00,
2013-06-27 07:05:00,68.1,67.2,29.73,North,0,0.0,0.0,97,0.00,OVC,,0.00,0.0,WeatherDisplay:10.37,2013-06-27 11:05:00,
2013-06-27 07:10:00,68.1,67.2,29.73,North,0,0.0,0.0,97,0.00,OVC,,0.00,0.0,WeatherDisplay:10.37,2013-06-27 11:10:00,
2013-06-27 07:15:00,68.1,67.2,29.73,North,0,0.0,0.0,97,0.00,OVC,,0.00,0.0,WeatherDisplay:10.37,2013-06-27 11:15:00,
2013-06-27 07:20:00,68.1,67.2,29.73,North,0,0.0,0.0,97,0.00,OVC,,0.00,0.0,WeatherDisplay:10.37,2013-06-27 11:20:00,
2013-06-27 07:25:00,68.1,67.2,29.73,North,0,0.0,0.0,97,0.00,OVC,,0.00,0.0,WeatherDisplay:10.37,2013-06-27 11:25:00,
2013-06-27 07:30:00,68.1,67.2,29.73,North,0,0.0,0.0,97,0.00,OVC,,0.00,0.0,WeatherDisplay:10.37,2013-06-27 11:30:00,
2013-06-27 07:35:00,68.1,67.2,29.73,North,0,0.0,0.0,97,0.00,OVC,,0.00,0.0,WeatherDisplay:10.37,2013-06-27 11:35:00,
2013-06-27 07:40:00,68.1,67.2,29.73,North,0,0.0,0.0,97,0.00,OVC,,0.00,0.0,WeatherDisplay:10.37,2013-06-27 11:40:00,
2013-06-27 07:45:00,68.1,67.2,29.73,North,0,0.0,0.0,97,0.00,OVC,,0.00,0.0,WeatherDisplay:10.37,2013-06-27 11:45:00,
2013-06-27 07:50:00,68.1,67.2,29.72,North,0,0.0,0.0,97,0.00,OVC,,0.00,0.0,WeatherDisplay:10.37,2013-06-27 11:50:00,
2013-06-27 07:55:00,68.1,67.2,29.73,North,0,0.0,0.0,97,0.00,OVC,,0.00,0.0,WeatherDisplay:10.37,2013-06-27 11:55:00,
2013-06-27 08:00:00,68.1,67.2,29.73,North,0,0.0,0.0,97,0.00,OVC,,0.00,0.0,WeatherDisplay:10.37,2013-06-27 12:00:00,
2013-06-27 08:05:00,68.1,67.2,29.73,North,0,0.0,0.0,97,0.00,OVC,,0.00,0.0,WeatherDisplay:10.37,2013-06-27 12:05:00,
2013-06-27 08:10:00,68.1,67.2,29.73,North,0,0.0,0.0,97,0.00,OVC,,0.00,0.0,WeatherDisplay:10.37,2013-06-27 12:10:00,
2013-06-27 08:15:00,68.1,67.2,29.72,North,0,0.0,0.0,97,0.00,OVC,,0.00,0.0,WeatherDisplay:10.37,2013-06-27 12:15:00,
2013-06-27 08:20:00,68.1,67.2,29.72,North,0,0.0,0.0,97,0.00,OVC,,0.00,0.0,WeatherDisplay:10.37,2013-06-27 12:20:00,
2013-06-27 08:26:00,68.1,67.2,29.72,North,0,0.0,0.0,97,0.00,OVC,,0.00,0.0,WeatherDisplay:10.37,2013-06-27 12:26:00,
2013-06-27 08:31:00,68.1,67.2,29.72,North,0,0.0,0.0,97,0.00,OVC,,0.00,0.0,WeatherDisplay:10.37,2013-06-27 12:31:00,
2013-06-27 08:36:00,68.1,67.2,29.72,North,0,0.0,0.0,97,0.00,OVC,,0.00,0.0,WeatherDisplay:10.37,2013-06-27 12:36:00,
2013-06-27 08:41:00,68.1,67.2,29.72,North,0,0.0,0.0,97,0.00,OVC,,0.00,0.0,WeatherDisplay:10.37,2013-06-27 12:41:00,
2013-06-27 08:46:00,68.1,67.2,29.72,North,0,0.0,0.0,97,0.00,OVC,,0.00,0.0,WeatherDisplay:10.37,2013-06-27 12:46:00,
2013-06-27 08:51:00,68.1,67.2,29.72,North,0,0.0,0.0,97,0.00,OVC,,0.00,0.0,WeatherDisplay:10.37,2013-06-27 12:51:00,
2013-06-27 08:56:00,68.1,67.2,29.72,North,0,0.0,0.0,97,0.00,OVC,,0.00,0.0,WeatherDisplay:10.37,2013-06-27 12:56:00,
2013-06-27 09:01:00,68.1,67.2,29.72,North,0,0.0,0.0,97,0.00,OVC,,0.00,0.0,WeatherDisplay:10.37,2013-06-27 13:01:00,
2013-06-27 09:06:00,68.1,67.2,29.72,North,0,0.0,0.0,97,0.00,OVC,,0.00,0.0,WeatherDisplay:10.37,2013-06-27 13:06:00,
2013-06-27 09:11:00,68.1,67.2,29.72,North,0,0.0,0.0,97,0.00,OVC,,0.00,0.0,WeatherDisplay:10.37,2013-06-27 13:11:00,
2013-06-27 09:16:00,68.1,67.2,29.72,North,0,0.0,0.0,97,0.00,OVC,,0.00,0.0,WeatherDisplay:10.37,2013-06-27 13:16:00,
2013-06-27 09:21:00,68.1,67.2,29.72,North,0,0.0,0.0,97,0.00,OVC,,0.00,0.0,WeatherDisplay:10.37,2013-06-27 13:21:00,
2013-06-27 09:26:00,68.1,67.2,29.72,North,0,0.0,0.0,97,0.00,OVC,,0.00,0.0,WeatherDisplay:10.37,2013-06-27 13:26:00,
2013-06-27 09:31:00,68.1,67.2,29.72,North,0,0.0,0.0,97,0.00,OVC,,0.00,0.0,WeatherDisplay:10.37,2013-06-27 13:31:00,
2013-06-27 09:36:00,68.1,67.2,29.71,North,0,0.0,0.0,97,0.00,OVC,,0.00,0.0,WeatherDisplay:10.37,2013-06-27 13:36:00,
2013-06-27 09:41:00,68.1,67.2,29.71,North,0,0.0,0.0,97,0.00,OVC,,0.00,0.0,WeatherDisplay:10.37,2013-06-27 13:41:00,
2013-06-27 09:46:00,68.1,67.2,29.70,North,0,0.0,0.0,97,0.00,OVC,,0.00,0.0,WeatherDisplay:10.37,2013-06-27 13:46:00,
2013-06-27 09:51:00,68.1,67.2,29.70,North,0,0.0,0.0,97,0.00,OVC,,0.00,0.0,WeatherDisplay:10.37,2013-06-27 13:51:00,
2013-06-27 09:56:00,68.1,67.2,29.70,North,0,0.0,0.0,97,0.00,OVC,,0.00,0.0,WeatherDisplay:10.37,2013-06-27 13:56:00,
2013-06-27 10:01:00,68.1,67.2,29.70,North,0,0.0,0.0,97,0.00,OVC,,0.00,0.0,WeatherDisplay:10.37,2013-06-27 14:01:00,
2013-06-27 10:06:00,68.1,67.2,29.70,North,0,0.0,0.0,97,0.00,OVC,,0.00,0.0,WeatherDisplay:10.37,2013-06-27 14:06:00,
2013-06-27 10:11:00,68.1,67.2,29.69,North,0,0.0,0.0,97,0.00,OVC,,0.00,0.0,WeatherDisplay:10.37,2013-06-27 14:11:00,
2013-06-27 10:16:00,68.1,67.2,29.69,North,0,0.0,0.0,97,0.00,OVC,,0.00,0.0,WeatherDisplay:10.37,2013-06-27 14:16:00,
2013-06-27 10:21:00,68.1,67.2,29.69,North,0,0.0,0.0,97,0.00,OVC,,0.00,0.0,WeatherDisplay:10.37,2013-06-27 14:21:00,
2013-06-27 10:26:00,68.1,67.2,29.69,North,0,0.0,0.0,97,0.00,OVC,,0.00,0.0,WeatherDisplay:10.37,2013-06-27 14:26:00,
2013-06-27 10:31:00,68.1,67.2,29.68,North,0,0.0,0.0,97,0.00,OVC,,0.00,0.0,WeatherDisplay:10.37,2013-06-27 14:31:00,
2013-06-27 10:36:00,68.1,67.2,29.68,North,0,0.0,0.0,97,0.00,OVC,,0.00,0.0,WeatherDisplay:10.37,2013-06-27 14:36:00,
2013-06-27 10:41:00,68.1,67.2,29.68,North,0,0.0,0.0,97,0.00,OVC,,0.00,0.0,WeatherDisplay:10.37,2013-06-27 14:41:00,
2013-06-27 10:46:00,68.1,67.2,29.67,North,0,0.0,0.0,97,0.00,OVC,,0.00,0.0,WeatherDisplay:10.37,2013-06-27 14:46:00,
2013-06-27 10:51:00,68.1,67.2,29.67,North,0,0.0,0.0,97,0.00,OVC,,0.00,0.0,WeatherDisplay:10.37,2013-06-27 14:51:00,
2013-06-27 10:56:00,68.1,67.2,29.67,North,0,0.0,0.0,97,0.00,OVC,,0.00,0.0,WeatherDisplay:10.37,2013-06-27 14:56:00,
2013-06-27 11:01:00,68.1,67.2,29.67,North,0,0.0,0.0,97,0.00,OVC,,0.00,0.0,WeatherDisplay:10.37,2013-06-27 15:01:00,
2013-06-27 11:06:00,68.1,67.2,29.67,North,0,0.0,0.0,97,0.00,OVC,,0.00,0.0,WeatherDisplay:10.37,2013-06-27 15:06:00,
2013-06-27 11:11:00,68.1,67.2,29.66,North,0,0.0,0.0,97,0.00,OVC,,0.00,0.0,WeatherDisplay:10.37,2013-06-27 15:11:00,
2013-06-27 11:16:00,68.1,67.2,29.66,North,0,0.0,0.0,97,0.00,OVC,,0.00,0.0,WeatherDisplay:10.37,2013-06-27 15:16:00,
2013-06-27 11:21:00,78.5,70.7,29.65,SE,141,3.8,6.0,77,0.00,OVC,,0.00,935.0,WeatherDisplay:10.37,2013-06-27 15:21:00,
2013-06-27 11:26:00,78.6,70.8,29.65,ESE,107,7.1,13.8,77,0.00,OVC,,0.00,935.0,WeatherDisplay:10.37,2013-06-27 15:26:00,
2013-06-27 11:31:00,79.2,71.4,29.66,South,180,7.2,9.2,77,0.00,OVC,,0.00,909.0,WeatherDisplay:10.37,2013-06-27 15:31:00,
2013-06-27 11:36:00,79.6,71.8,29.65,ESE,111,8.7,13.8,77,0.00,OVC,,0.00,895.0,WeatherDisplay:10.37,2013-06-27 15:36:00,
2013-06-27 11:41:00,79.9,71.7,29.65,ESE,106,4.4,8.1,76,0.00,OVC,,0.00,782.0,WeatherDisplay:10.37,2013-06-27 15:41:00,
2013-06-27 11:46:00,79.8,70.8,29.65,SE,146,3.3,5.8,74,0.00,OVC,,0.00,494.0,WeatherDisplay:10.37,2013-06-27 15:46:00,
2013-06-27 11:51:00,79.2,70.2,29.65,SSE,151,2.6,8.1,74,0.00,OVC,,0.00,534.0,WeatherDisplay:10.37,2013-06-27 15:51:00,
2013-06-27 11:56:00,78.8,70.6,29.65,South,173,8.4,11.5,76,0.00,OVC,,0.00,675.0,WeatherDisplay:10.37,2013-06-27 15:56:00,
2013-06-27 12:01:00,78.5,70.3,29.66,SSE,163,10.6,13.8,76,0.00,OVC,,0.00,598.0,WeatherDisplay:10.37,2013-06-27 16:01:00,
2013-06-27 12:06:00,78.6,71.2,29.65,South,175,5.1,8.1,78,0.00,OVC,,0.00,619.0,WeatherDisplay:10.37,2013-06-27 16:06:00,
2013-06-27 12:11:00,78.6,70.8,29.65,East,96,9.3,10.4,77,0.00,OVC,,0.00,519.0,WeatherDisplay:10.37,2013-06-27 16:11:00,
2013-06-27 12:16:00,78.3,70.1,29.65,South,181,9.1,11.5,76,0.00,BKN,,0.00,555.0,WeatherDisplay:10.37,2013-06-27 16:16:00,
2013-06-27 12:21:00,78.5,70.7,29.65,SE,146,9.5,15.0,77,0.00,BKN,,0.00,640.0,WeatherDisplay:10.37,2013-06-27 16:21:00,
2013-06-27 12:26:00,78.5,70.7,29.65,South,173,14.0,16.5,77,0.00,BKN,,0.00,543.0,WeatherDisplay:10.37,2013-06-27 16:26:00,
2013-06-27 12:31:00,77.9,70.1,29.65,SSE,155,6.2,10.5,77,0.00,BKN,,0.00,357.0,WeatherDisplay:10.37,2013-06-27 16:31:00,
2013-06-27 12:36:00,77.2,69.8,29.65,SSE,157,13.1,16.5,78,0.00,BKN,,0.00,413.0,WeatherDisplay:10.37,2013-06-27 16:36:00,
2013-06-27 12:41:00,77.2,70.2,29.64,South,185,2.3,10.4,79,0.00,BKN,,0.00,520.0,WeatherDisplay:10.37,2013-06-27 16:41:00,
2013-06-27 12:46:00,77.7,71.0,29.64,SE,130,9.0,11.5,80,0.00,BKN,,0.00,779.0,WeatherDisplay:10.37,2013-06-27 16:46:00,
2013-06-27 12:51:00,77.7,70.7,29.64,SSE,150,7.5,10.4,79,0.00,BKN,,0.00,557.0,WeatherDisplay:10.37,2013-06-27 16:51:00,
2013-06-27 12:56:00,78.3,71.6,29.64,South,186,7.1,11.5,80,0.00,BKN,,0.00,1118.0,WeatherDisplay:10.37,2013-06-27 16:56:00,
2013-06-27 13:01:00,78.5,71.4,29.64,SE,143,7.0,18.4,79,0.00,BKN,,0.00,427.0,WeatherDisplay:10.37,2013-06-27 17:01:00,
2013-06-27 13:06:00,78.5,71.4,29.64,SSE,159,4.1,10.5,79,0.00,BKN,,0.00,1121.0,WeatherDisplay:10.37,2013-06-27 17:06:00,
2013-06-27 13:11:00,78.6,71.2,29.63,SSE,148,11.3,18.4,78,0.00,BKN,,0.00,979.0,WeatherDisplay:10.37,2013-06-27 17:11:00,
2013-06-27 13:16:00,79.0,71.9,29.63,SSE,156,6.9,10.5,79,0.00,BKN,,0.00,1013.0,WeatherDisplay:10.37,2013-06-27 17:16:00,
2013-06-27 13:21:00,79.4,71.6,29.62,SSE,164,12.1,15.0,77,0.00,BKN,,0.00,1071.0,WeatherDisplay:10.37,2013-06-27 17:21:00,
2013-06-27 13:26:00,78.8,70.6,29.62,SSE,159,7.7,16.1,76,0.00,BKN,,0.00,230.0,WeatherDisplay:10.37,2013-06-27 17:26:00,
2013-06-27 13:31:00,77.7,69.9,29.62,SSE,150,11.4,16.1,77,0.00,BKN,,0.00,279.0,WeatherDisplay:10.37,2013-06-27 17:31:00,
2013-06-27 13:36:00,77.2,70.2,29.62,South,171,5.3,9.2,79,0.00,BKN,,0.00,295.0,WeatherDisplay:10.37,2013-06-27 17:36:00,
2013-06-27 13:41:00,76.8,70.2,29.62,SSE,166,7.0,10.4,80,0.00,BKN,,0.00,315.0,WeatherDisplay:10.37,2013-06-27 17:41:00,
2013-06-27 13:46:00,77.2,71.3,29.61,SE,142,13.0,18.4,82,0.00,BKN,,0.00,708.0,WeatherDisplay:10.37,2013-06-27 17:46:00,
2013-06-27 13:51:00,77.7,71.0,29.61,SSE,158,6.1,11.5,80,0.00,BKN,,0.00,749.0,WeatherDisplay:10.37,2013-06-27 17:51:00,
2013-06-27 13:56:00,78.5,72.2,29.61,SW,232,10.4,15.0,81,0.00,BKN,,0.00,1100.0,WeatherDisplay:10.37,2013-06-27 17:56:00,
2013-06-27 14:01:00,78.3,70.9,29.61,South,170,8.8,9.2,78,0.00,BKN,,0.00,269.0,WeatherDisplay:10.37,2013-06-27 18:01:00,
2013-06-27 14:06:00,77.9,70.1,29.61,South,177,8.3,15.0,77,0.00,OVC,,0.00,271.0,WeatherDisplay:10.37,2013-06-27 18:06:00,
2013-06-27 14:11:00,77.7,70.7,29.62,SW,236,4.3,6.0,79,0.00,OVC,,0.00,322.0,WeatherDisplay:10.37,2013-06-27 18:11:00,
2013-06-27 14:16:00,77.9,71.2,29.62,SSE,150,3.1,6.0,80,0.00,OVC,,0.00,311.0,WeatherDisplay:10.37,2013-06-27 18:16:00,
2013-06-27 14:21:00,78.1,70.7,29.61,South,188,9.4,13.5,78,0.00,OVC,,0.00,304.0,WeatherDisplay:10.37,2013-06-27 18:21:00,
2013-06-27 14:26:00,78.3,70.9,29.61,SSE,150,9.2,13.5,78,0.00,OVC,,0.00,536.0,WeatherDisplay:10.37,2013-06-27 18:26:00,
2013-06-27 14:31:00,78.6,71.2,29.61,SSE,155,10.1,15.0,78,0.00,OVC,,0.00,448.0,WeatherDisplay:10.37,2013-06-27 18:31:00,
2013-06-27 14:36:00,78.8,70.2,29.61,SE,146,13.3,22.5,75,0.00,OVC,,0.00,327.0,WeatherDisplay:10.37,2013-06-27 18:36:00,
2013-06-27 14:41:00,78.6,70.4,29.61,SW,223,6.2,15.0,76,0.00,OVC,,0.00,192.0,WeatherDisplay:10.37,2013-06-27 18:41:00,
2013-06-27 14:46:00,78.5,70.7,29.61,SW,214,11.8,19.5,77,0.00,OVC,,0.00,246.0,WeatherDisplay:10.37,2013-06-27 18:46:00,
2013-06-27 14:51:00,78.3,70.9,29.61,South,184,5.9,10.5,78,0.00,OVC,,0.00,348.0,WeatherDisplay:10.37,2013-06-27 18:51:00,
2013-06-27 14:56:00,78.6,71.2,29.62,SW,228,9.3,9.3,78,0.00,OVC,,0.00,329.0,WeatherDisplay:10.37,2013-06-27 18:56:00,
2013-06-27 15:01:00,78.5,70.7,29.62,SSW,211,11.2,20.7,77,0.00,OVC,,0.00,193.0,WeatherDisplay:10.37,2013-06-27 19:01:00,
2013-06-27 15:07:00,78.1,70.3,29.62,SW,229,5.7,9.0,77,0.00,OVC,,0.00,246.0,WeatherDisplay:10.37,2013-06-27 19:07:00,
2013-06-27 15:12:00,77.9,70.1,29.62,SSE,149,8.7,15.0,77,0.00,OVC,,0.00,120.0,WeatherDisplay:10.37,2013-06-27 19:12:00,
2013-06-27 15:17:00,77.6,70.2,29.62,WSW,240,7.4,10.4,78,0.00,OVC,,0.00,100.0,WeatherDisplay:10.37,2013-06-27 19:17:00,
2013-06-27 15:22:00,77.4,70.0,29.62,WSW,237,7.7,7.7,78,0.00,OVC,,0.00,69.0,WeatherDisplay:10.37,2013-06-27 19:22:00,
2013-06-27 15:27:00,77.0,69.6,29.62,SW,217,9.8,13.8,78,0.00,OVC,,0.00,54.0,WeatherDisplay:10.37,2013-06-27 19:27:00,
2013-06-27 15:32:00,76.8,69.8,29.62,SW,234,14.3,18.4,79,0.00,OVC,,0.00,155.0,WeatherDisplay:10.37,2013-06-27 19:32:00,
2013-06-27 15:37:00,76.7,69.7,29.62,SW,221,11.1,13.8,79,0.00,OVC,,0.00,188.0,WeatherDisplay:10.37,2013-06-27 19:37:00,
2013-06-27 15:42:00,76.5,69.9,29.62,West,267,4.4,8.1,80,0.00,OVC,,0.00,193.0,WeatherDisplay:10.37,2013-06-27 19:42:00,
2013-06-27 15:47:00,76.3,70.4,29.61,SW,226,9.8,15.0,82,0.00,OVC,,0.00,192.0,WeatherDisplay:10.37,2013-06-27 19:47:00,
2013-06-27 15:52:00,76.0,70.1,29.61,SW,221,8.0,9.2,82,0.00,OVC,,0.00,193.0,WeatherDisplay:10.37,2013-06-27 19:52:00,
2013-06-27 15:57:00,75.8,70.3,29.61,WNW,285,3.7,6.0,83,0.00,OVC,,0.00,197.0,WeatherDisplay:10.37,2013-06-27 19:57:00,
2013-06-27 16:02:00,76.0,70.8,29.61,WNW,297,2.3,5.8,84,0.00,BKN,,0.00,246.0,WeatherDisplay:10.37,2013-06-27 20:02:00,
2013-06-27 16:07:00,76.1,70.9,29.60,West,270,3.9,6.0,84,0.00,BKN,,0.00,288.0,WeatherDisplay:10.37,2013-06-27 20:07:00,
2013-06-27 16:12:00,76.0,70.8,29.60,West,269,5.4,8.1,84,0.00,BKN,,0.00,322.0,WeatherDisplay:10.37,2013-06-27 20:12:00,
2013-06-27 16:17:00,76.1,71.3,29.60,SW,214,0.3,3.5,85,0.00,BKN,,0.00,425.0,WeatherDisplay:10.37,2013-06-27 20:17:00,
2013-06-27 16:22:00,76.7,72.2,29.59,West,267,2.0,4.5,86,0.00,BKN,,0.00,531.0,WeatherDisplay:10.37,2013-06-27 20:22:00,
2013-06-27 16:27:00,77.6,72.4,29.59,WNW,282,3.0,4.5,84,0.00,BKN,,0.00,404.0,WeatherDisplay:10.37,2013-06-27 20:27:00,
2013-06-27 16:32:00,77.7,71.8,29.59,WNW,299,2.9,6.0,82,0.00,BKN,,0.00,422.0,WeatherDisplay:10.37,2013-06-27 20:32:00,
2013-06-27 16:37:00,78.1,71.4,29.59,WNW,294,4.3,9.0,80,0.00,BKN,,0.00,313.0,WeatherDisplay:10.37,2013-06-27 20:37:00,
2013-06-27 16:42:00,78.1,71.1,29.59,WSW,255,6.2,9.0,79,0.00,BKN,,0.00,336.0,WeatherDisplay:10.37,2013-06-27 20:42:00,
2013-06-27 16:47:00,78.3,70.9,29.59,West,275,6.2,9.2,78,0.00,BKN,,0.00,471.0,WeatherDisplay:10.37,2013-06-27 20:47:00,
2013-06-27 16:52:00,78.5,70.7,29.58,West,277,5.8,9.0,77,0.00,BKN,,0.00,213.0,WeatherDisplay:10.37,2013-06-27 20:52:00,
2013-06-27 16:57:00,78.3,69.3,29.58,NW,319,12.3,15.0,74,0.00,BKN,,0.00,274.0,WeatherDisplay:10.37,2013-06-27 20:57:00,
2013-06-27 17:02:00,79.2,70.6,29.57,West,281,6.9,9.2,75,0.00,BKN,,0.00,694.0,WeatherDisplay:10.37,2013-06-27 21:02:00,
2013-06-27 17:07:00,79.8,69.6,29.57,West,276,8.4,16.1,71,0.00,BKN,,0.00,701.0,WeatherDisplay:10.37,2013-06-27 21:07:00,
2013-06-27 17:12:00,80.5,70.2,29.57,West,269,10.5,22.5,71,0.00,BKN,,0.00,687.0,WeatherDisplay:10.37,2013-06-27 21:12:00,
2013-06-27 17:17:00,80.7,70.4,29.57,West,271,4.1,10.4,71,0.00,BKN,,0.00,606.0,WeatherDisplay:10.37,2013-06-27 21:17:00,
2013-06-27 17:22:00,80.9,69.8,29.57,NW,319,14.4,18.4,69,0.00,BKN,,0.00,534.0,WeatherDisplay:10.37,2013-06-27 21:22:00,
2013-06-27 17:27:00,80.7,69.6,29.57,West,271,8.2,15.0,69,0.00,BKN,,0.00,520.0,WeatherDisplay:10.37,2013-06-27 21:27:00,
2013-06-27 17:32:00,79.9,69.2,29.57,NW,311,7.2,13.8,70,0.00,BKN,,0.00,192.0,WeatherDisplay:10.37,2013-06-27 21:32:00,
2013-06-27 17:37:00,79.9,70.1,29.57,WNW,301,6.9,8.1,72,0.00,BKN,,0.00,526.0,WeatherDisplay:10.37,2013-06-27 21:37:00,
2013-06-27 17:42:00,80.5,70.2,29.56,WNW,301,12.8,15.0,71,0.00,BKN,,0.00,455.0,WeatherDisplay:10.37,2013-06-27 21:42:00,
2013-06-27 17:47:00,81.1,69.1,29.56,WNW,298,11.9,11.9,67,0.00,BKN,,0.00,432.0,WeatherDisplay:10.37,2013-06-27 21:47:00,
2013-06-27 17:52:00,81.2,68.8,29.56,NW,305,12.5,13.8,66,0.00,BKN,,0.00,422.0,WeatherDisplay:10.37,2013-06-27 21:52:00,
2013-06-27 17:57:00,81.1,68.2,29.57,WSW,248,13.1,16.5,65,0.00,BKN,,0.00,411.0,WeatherDisplay:10.37,2013-06-27 21:57:00,
2013-06-27 18:02:00,80.5,68.1,29.56,WNW,285,8.8,15.0,66,0.00,BKN,,0.00,178.0,WeatherDisplay:10.37,2013-06-27 22:02:00,
2013-06-27 18:07:00,80.7,69.2,29.56,WNW,284,12.7,13.8,68,0.00,BKN,,0.00,401.0,WeatherDisplay:10.37,2013-06-27 22:07:00,
2013-06-27 18:12:00,81.1,68.7,29.57,WNW,290,8.6,10.4,66,0.00,BKN,,0.00,374.0,WeatherDisplay:10.37,2013-06-27 22:12:00,
2013-06-27 18:17:00,81.1,68.2,29.57,WNW,290,6.4,15.0,65,0.00,BKN,,0.00,204.0,WeatherDisplay:10.37,2013-06-27 22:17:00,
2013-06-27 18:22:00,80.9,68.5,29.57,WNW,294,8.3,8.3,66,0.00,BKN,,0.00,169.0,WeatherDisplay:10.37,2013-06-27 22:22:00,
2013-06-27 18:27:00,80.3,68.8,29.57,West,262,8.6,15.0,68,0.00,BKN,,0.00,134.0,WeatherDisplay:10.37,2013-06-27 22:27:00,
2013-06-27 18:33:00,80.7,69.2,29.57,West,261,3.1,4.5,68,0.00,BKN,,0.00,369.0,WeatherDisplay:10.37,2013-06-27 22:33:00,
2013-06-27 18:38:00,80.9,68.5,29.57,WNW,284,9.6,10.5,66,0.00,BKN,,0.00,114.0,WeatherDisplay:10.37,2013-06-27 22:38:00,
2013-06-27 18:45:00,80.5,68.5,29.57,WNW,299,7.2,8.1,67,0.00,BKN,,0.00,285.0,WeatherDisplay:10.37,2013-06-27 22:45:00,
2013-06-27 18:50:00,80.9,68.5,29.57,WNW,285,4.8,7.5,66,0.00,BKN,,0.00,276.0,WeatherDisplay:10.37,2013-06-27 22:50:00,
2013-06-27 18:55:00,80.9,68.0,29.57,WNW,288,2.6,5.8,65,0.00,BKN,,0.00,167.0,WeatherDisplay:10.37,2013-06-27 22:55:00,
2013-06-27 19:00:00,80.7,68.7,29.57,WNW,292,5.3,9.0,67,0.00,BKN,,0.00,204.0,WeatherDisplay:10.37,2013-06-27 23:00:00,
2013-06-27 19:05:00,80.3,68.3,29.58,WNW,287,1.7,4.5,67,0.00,BKN,,0.00,98.0,WeatherDisplay:10.37,2013-06-27 23:05:00,
2013-06-27 19:10:00,80.1,68.6,29.58,WNW,287,0.0,0.0,68,0.00,BKN,,0.00,70.0,WeatherDisplay:10.37,2013-06-27 23:10:00,
2013-06-27 19:15:00,79.8,68.3,29.58,WNW,284,1.3,4.6,68,0.00,BKN,,0.00,83.0,WeatherDisplay:10.37,2013-06-27 23:15:00,
2013-06-27 19:20:00,79.6,68.1,29.58,WNW,303,0.4,7.5,68,0.00,BKN,,0.00,67.0,WeatherDisplay:10.37,2013-06-27 23:20:00,
2013-06-27 19:25:00,79.4,67.9,29.58,WNW,291,3.9,7.5,68,0.00,BKN,,0.00,97.0,WeatherDisplay:10.37,2013-06-27 23:25:00,
2013-06-27 19:30:00,79.2,67.3,29.58,West,276,4.2,8.1,67,0.00,BKN,,0.00,67.0,WeatherDisplay:10.37,2013-06-27 23:30:00,
2013-06-27 19:35:00,79.2,67.7,29.58,SW,223,0.9,5.8,68,0.00,BKN,,0.00,58.0,WeatherDisplay:10.37,2013-06-27 23:35:00,
2013-06-27 19:40:00,79.0,67.5,29.58,West,267,0.0,1.5,68,0.00,BKN,,0.00,40.0,WeatherDisplay:10.37,2013-06-27 23:40:00,
2013-06-27 19:45:00,78.8,67.3,29.59,West,270,0.0,0.0,68,0.00,BKN,,0.00,42.0,WeatherDisplay:10.37,2013-06-27 23:45:00,
2013-06-27 19:50:00,78.8,67.8,29.58,West,265,5.0,6.0,69,0.00,BKN,,0.00,35.0,WeatherDisplay:10.37,2013-06-27 23:50:00,
2013-06-27 19:55:00,78.6,67.6,29.58,SW,223,6.9,9.2,69,0.00,BKN,,0.00,42.0,WeatherDisplay:10.37,2013-06-27 23:55:00,
2013-06-27 20:01:00,78.5,67.5,29.58,SW,226,1.3,6.0,69,0.00,BKN,,0.00,49.0,WeatherDisplay:10.37,2013-06-28 00:01:00,
2013-06-27 20:06:00,78.5,67.5,29.58,WSW,239,5.6,6.0,69,0.00,BKN,,0.00,32.0,WeatherDisplay:10.37,2013-06-28 00:06:00,
2013-06-27 20:11:00,78.5,67.5,29.58,WSW,245,8.4,8.4,69,0.00,BKN,,0.00,23.0,WeatherDisplay:10.37,2013-06-28 00:11:00,
2013-06-27 20:16:00,78.5,67.5,29.58,WSW,245,8.4,8.4,69,0.00,BKN,,0.00,23.0,WeatherDisplay:10.37,2013-06-28 00:16:00,
2013-06-27 20:21:00,78.5,67.5,29.60,NNE,16,0.0,0.0,69,0.00,BKN,,0.00,0.0,WeatherDisplay:10.37,2013-06-28 00:21:00,
2013-06-27 20:26:00,78.5,67.5,29.60,North,0,0.0,0.0,69,0.00,BKN,,0.00,0.0,WeatherDisplay:10.37,2013-06-28 00:26:00,
2013-06-27 20:31:00,78.5,67.5,29.60,North,0,0.0,0.0,69,0.00,BKN,,0.00,0.0,WeatherDisplay:10.37,2013-06-28 00:31:00,
2013-06-27 20:36:00,78.5,67.5,29.60,North,0,0.0,0.0,69,0.00,BKN,,0.00,0.0,WeatherDisplay:10.37,2013-06-28 00:36:00,
2013-06-27 20:41:00,78.5,67.5,29.60,North,0,0.0,0.0,69,0.00,BKN,,0.00,0.0,WeatherDisplay:10.37,2013-06-28 00:41:00,
2013-06-27 20:46:00,78.5,67.5,29.60,North,0,0.0,0.0,69,0.00,BKN,,0.00,0.0,WeatherDisplay:10.37,2013-06-28 00:46:00,
2013-06-27 20:51:00,78.5,67.5,29.60,North,0,0.0,0.0,69,0.00,BKN,,0.00,0.0,WeatherDisplay:10.37,2013-06-28 00:51:00,
2013-06-27 20:56:00,78.5,67.5,29.61,North,0,0.0,0.0,69,0.00,BKN,,0.00,0.0,WeatherDisplay:10.37,2013-06-28 00:56:00,
2013-06-27 21:02:00,77.0,66.5,29.61,WSW,248,1.5,7.5,70,0.00,OVC,,0.00,0.0,WeatherDisplay:10.37,2013-06-28 01:02:00,
2013-06-27 21:07:00,76.8,66.3,29.59,West,268,3.4,8.1,70,0.00,OVC,,0.00,0.0,WeatherDisplay:10.37,2013-06-28 01:07:00,
2013-06-27 21:12:00,76.8,66.3,29.59,West,271,6.1,8.1,70,0.00,OVC,,0.00,0.0,WeatherDisplay:10.37,2013-06-28 01:12:00,
2013-06-27 21:17:00,76.7,66.6,29.59,West,270,1.8,8.1,71,0.00,OVC,,0.00,0.0,WeatherDisplay:10.37,2013-06-28 01:17:00,
2013-06-27 21:22:00,76.5,66.4,29.59,WSW,256,0.8,3.5,71,0.00,OVC,,0.00,0.0,WeatherDisplay:10.37,2013-06-28 01:22:00,
2013-06-27 21:27:00,76.3,66.2,29.59,WSW,250,0.6,4.6,71,0.00,OVC,,0.00,0.0,WeatherDisplay:10.37,2013-06-28 01:27:00,
2013-06-27 21:33:00,76.1,66.4,29.59,WSW,250,0.1,1.5,72,0.00,OVC,,0.00,0.0,WeatherDisplay:10.37,2013-06-28 01:33:00,
2013-06-27 21:38:00,76.1,66.4,29.59,WSW,250,0.0,1.2,72,0.00,OVC,,0.00,0.0,WeatherDisplay:10.37,2013-06-28 01:38:00,
2013-06-27 21:43:00,76.0,66.3,29.59,WSW,250,0.6,3.5,72,0.00,OVC,,0.00,0.0,WeatherDisplay:10.37,2013-06-28 01:43:00,
2013-06-27 21:48:00,76.0,66.7,29.59,WSW,250,0.1,1.2,73,0.00,OVC,,0.00,0.0,WeatherDisplay:10.37,2013-06-28 01:48:00,
2013-06-27 21:53:00,75.8,66.5,29.60,WSW,250,0.0,0.0,73,0.00,OVC,,0.00,0.0,WeatherDisplay:10.37,2013-06-28 01:53:00,
2013-06-27 21:58:00,75.6,66.7,29.60,WSW,250,0.0,0.0,74,0.00,OVC,,0.00,0.0,WeatherDisplay:10.37,2013-06-28 01:58:00,
2013-06-27 22:03:00,75.4,66.9,29.60,WSW,250,0.0,0.0,75,0.00,OVC,,0.00,0.0,WeatherDisplay:10.37,2013-06-28 02:03:00,
2013-06-27 22:08:00,75.3,66.8,29.60,WSW,250,0.0,0.0,75,0.00,OVC,,0.00,0.0,WeatherDisplay:10.37,2013-06-28 02:08:00,
2013-06-27 22:14:00,75.1,67.0,29.60,WSW,250,0.0,0.0,76,0.00,BKN,,0.00,0.0,WeatherDisplay:10.37,2013-06-28 02:14:00,
2013-06-27 22:19:00,74.9,66.8,29.60,WSW,250,0.0,0.0,76,0.00,BKN,,0.00,0.0,WeatherDisplay:10.37,2013-06-28 02:19:00,
2013-06-27 22:24:00,74.9,67.2,29.59,WSW,250,0.0,0.0,77,0.00,BKN,,0.00,0.0,WeatherDisplay:10.37,2013-06-28 02:24:00,
2013-06-27 22:29:00,74.7,67.0,29.60,WSW,250,0.0,0.0,77,0.00,BKN,,0.00,0.0,WeatherDisplay:10.37,2013-06-28 02:29:00,
2013-06-27 22:34:00,74.7,67.0,29.59,WSW,250,0.0,0.0,77,0.00,BKN,,0.00,0.0,WeatherDisplay:10.37,2013-06-28 02:34:00,
2013-06-27 22:39:00,74.6,67.3,29.59,WSW,250,0.0,0.0,78,0.00,BKN,,0.00,0.0,WeatherDisplay:10.37,2013-06-28 02:39:00,
2013-06-27 22:44:00,74.4,67.1,29.59,WSW,250,0.0,0.0,78,0.00,BKN,,0.00,0.0,WeatherDisplay:10.37,2013-06-28 02:44:00,
2013-06-27 22:49:00,74.2,67.3,29.59,WSW,250,0.0,0.0,79,0.00,BKN,,0.00,0.0,WeatherDisplay:10.37,2013-06-28 02:49:00,
2013-06-27 22:54:00,74.0,67.1,29.59,WSW,250,0.0,0.0,79,0.00,BKN,,0.00,0.0,WeatherDisplay:10.37,2013-06-28 02:54:00,
2013-06-27 23:00:00,74.0,66.7,29.59,WSW,250,1.4,4.5,78,0.00,BKN,,0.00,0.0,WeatherDisplay:10.37,2013-06-28 03:00:00,
2013-06-27 23:05:00,74.0,66.3,29.59,WSW,250,0.0,1.2,77,0.00,FEW,,0.00,0.0,WeatherDisplay:10.37,2013-06-28 03:05:00,
2013-06-27 23:10:00,74.2,66.5,29.59,WSW,249,0.1,4.6,77,0.00,FEW,,0.00,0.0,WeatherDisplay:10.37,2013-06-28 03:10:00,
2013-06-27 23:17:00,73.9,66.6,29.59,WSW,249,0.0,0.0,78,0.00,FEW,,0.00,0.0,WeatherDisplay:10.37,2013-06-28 03:17:00,
2013-06-27 23:22:00,73.7,66.4,29.58,WSW,249,0.0,0.0,78,0.00,FEW,,0.00,0.0,WeatherDisplay:10.37,2013-06-28 03:22:00,
2013-06-27 23:27:00,73.5,66.2,29.58,WSW,249,0.0,0.0,78,0.00,FEW,,0.00,0.0,WeatherDisplay:10.37,2013-06-28 03:27:00,
2013-06-27 23:32:00,73.5,66.2,29.59,WSW,249,0.0,0.0,78,0.00,FEW,,0.00,0.0,WeatherDisplay:10.37,2013-06-28 03:32:00,
2013-06-27 23:37:00,73.2,65.9,29.58,WSW,249,0.0,0.0,78,0.00,FEW,,0.00,0.0,WeatherDisplay:10.37,2013-06-28 03:37:00,
2013-06-27 23:43:00,73.2,66.3,29.59,WSW,249,0.2,1.2,79,0.00,FEW,,0.00,0.0,WeatherDisplay:10.37,2013-06-28 03:43:00,
2013-06-27 23:48:00,73.0,66.1,29.58,WSW,249,0.0,0.0,79,0.00,FEW,,0.00,0.0,WeatherDisplay:10.37,2013-06-28 03:48:00,
2013-06-27 23:53:00,72.8,65.9,29.58,WSW,249,0.0,0.0,79,0.00,FEW,,0.00,0.0,WeatherDisplay:10.37,2013-06-28 03:53:00,
2013-06-27 23:58:00,72.7,65.8,29.58,WSW,249,0.0,0.0,79,0.00,FEW,,0.00,0.0,WeatherDisplay:10.37,2013-06-28 03:58:00,